Regional Weather Roundup
Issued by NWS Sterling, VA

Home | Current Version | Previous Version | Text Only | Print | Product List | Glossary Off
Versions: 1 2 3 4 5 6 7 8 9 10 11 12 13 14 15 16 17 18 19 20 21 22 23 24 25 26 27 28 29 30 31 32 33 34 35 36 37 38 39 40 41 42 43 44 45 46 47 48 49 50

385
ASUS41 KLWX 182010
RWRLWX

REGIONAL WEATHER ROUNDUP
NATIONAL WEATHER SERVICE BALTIMORE MD/WASHINGTON DC
300 PM EST SAT FEB 18 2017

Note: "FAIR" indicates few or no clouds below 12,000 feet
with no significant weather and/or obstructions to visibility.
 TC=TEMPERATURE CELSIUS

 * =Non NWS site. Station does not report precipitation (e.g. rain,
    snow, etc.), thunder, or fog.

DCZ001-MDZ009-015-VAZ040>042-051-053>054-182100-
WASHINGTON METRO

CITY           SKY/WX    TMP DP  RH WIND       PRES   REMARKS
WASHINGTON NAT PTSUNNY   63  33  32 S12       29.75F
DULLES         PTSUNNY   72  28  19 S14       29.74F
ANDREWS AFB    SUNNY     71  31  22 SW10      29.74F
FT BELVOIR     MOSUNNY   69  31  24 S8        29.75F
QUANTICO       SUNNY     62  37  39 SW6       29.76F
COLLEGE PARK*  SUNNY     68  32  26 S6        29.73F
LEESBURG*      SUNNY     73  32  21 SW12G18   29.74F
MANASSAS*      SUNNY     72  32  23 SW10      29.75F
GAITHERSBURG*  SUNNY     70  30  23 SW13      29.77F

$$

MDZ006>007-011-014-182100-
BALTIMORE METRO

CITY           SKY/WX    TMP DP  RH WIND       PRES   REMARKS
BWI AIRPORT    PTSUNNY   70  30  22 SW7G17    29.73F
MD SCIENCE CTR   N/A     72  29  20 MISG      29.72F
MARTIN STATE   PTSUNNY   55  41  58 E5        29.75F
ANNAPOLIS      MOSUNNY   58  38  47 SE9       29.75F
FORT MEADE*    SUNNY     70  30  23 SW10G18   29.75F

$$

MDZ012-015-019>023-182100-
MARYLAND EASTERN SHORE

CITY           SKY/WX    TMP DP  RH WIND       PRES   REMARKS
OCEAN CITY     MOSUNNY   56  41  57 S8        29.78F
SALISBURY      SUNNY     66  35  31 SW16      29.77F
BAY BRIDGE AP* MOSUNNY   59  37  44 S9        29.75F
CAMBRIDGE*     MOSUNNY   59  39  47 SE9       29.76F

$$

MDZ017>025-182100-
SOUTHERN MARYLAND

CITY           SKY/WX    TMP DP  RH WIND       PRES   REMARKS
PATUXENT RIVER PTSUNNY   54  43  66 SE8       29.76F
ST INIGOES     MOSUNNY   66  39  37 SE6       29.76F
LEONARDTOWN*   MOSUNNY   68  36  30 SW8       29.77F

$$

MDZ003>005-182100-
NORTH CENTRAL MARYLAND

CITY           SKY/WX    TMP DP  RH WIND       PRES   REMARKS
FREDERICK*     SUNNY     72  34  25 SW10      29.74F
HAGERSTOWN APT SUNNY     70  31  23 S14G20    29.71F
WESTMINSTER*   SUNNY     70  34  26 SW15      29.72F

$$

MDZ501>502-182100-
WESTERN MARYLAND

CITY           SKY/WX    TMP DP  RH WIND       PRES   REMARKS
OAKLAND*       SUNNY     59  30  33 W16G24    29.79S
CUMBERLAND*    MOSUNNY   70  30  23 SW7       29.77S

$$

VAZ025>031-182100-
SHENANDOAH VALLEY

CITY           SKY/WX    TMP DP  RH WIND       PRES   REMARKS
WINCHESTER*    SUNNY     68  30  24 SW10      29.74S
FRONT ROYAL*   SUNNY     68  32  26 SW7       29.75S
LURAY*         MOSUNNY   66  34  30 S9G17     29.77S
NEW MARKET*    PTSUNNY   65  29  26 S9        29.77F
STAUNTON*      CLOUDY    64  32  29 S12       29.81S
WAYNESBORO*    PTSUNNY   65  26  22 SW9G16    29.81S

$$

WVZ021-048>050-054>055-182100-
EASTERN WEST VIRGINIA PANHANDLE

CITY           SKY/WX    TMP DP  RH WIND       PRES   REMARKS
MARTINSBURG    SUNNY     70  30  22 S10       29.72F
PETERSBURG*    CLOUDY    70  32  25 SW7       29.77R

$$

VAZ036>039-050-182100-
CENTRAL FOOTHILLS

CITY           SKY/WX    TMP DP  RH WIND       PRES   REMARKS
CHARLOTTESVILL PTSUNNY   72  28  19 SW8       29.77F
CULPEPER*      SUNNY     73  31  21 SW12G18   29.76S
ORANGE*        MOSUNNY   70  28  21 S9        29.78S
GORDONSVILLE*  MOSUNNY   71  30  22 SW9G20    29.76F
WARRENTON*     SUNNY     74  17  11 SW10G17   29.75S

$$

VAZ055>057-182100-
NORTH AND CENTRAL PIEDMONT

CITY           SKY/WX    TMP DP  RH WIND       PRES   REMARKS
FREDERICKSBRG* CLOUDY    73  34  24 SW16      29.75S
STAFFORD*      MOSUNNY   70  31  23 SW6       29.80S

$$

NCZ024-NYZ072-PAZ021-071-VAZ022-071-182100-
OTHER REGIONAL OBSERVATIONS

CITY           SKY/WX    TMP DP  RH WIND       PRES   REMARKS
NEW YORK CITY  SUNNY     61  32  33 MISG      29.69F
PHILADELPHIA   CLOUDY    66  34  30 SW16      29.72F
PITTSBURGH     PTSUNNY   66  33  29 SW10      29.73F
ROANOKE        CLOUDY    71  28  20 W12       29.84F
RICHMOND       PTSUNNY   73  31  21 SW17      29.79F
RALEIGH        PTSUNNY   72  28  19 SW13      29.88R

$$

ANZ530>537-182100-
MARINE OBSERVATIONS

STATION/POSITION TIME  TEMP    WIND        PRES
                       AIR SEA DIR/SP/G
                 (UTC) (F)     (DEG/KT/KT) (MB)
THOMAS PT LIGHT  2000   45 40  190/  8/  9   N/A
BALT KEY BRIDGE  1948   67     220/  8/ 11 1006.5F
COVE POINT       1948   44     180/  9/  9 1008.5F
LEWISETTA        1948   66 44  230/ 13/ 18 1007.6F
SOLOMONS ISLAND  1942   52 42   90/  8/  9   N/A
PINEY POINT      1948          150/  8/  9   N/A

$$





USA.gov is the U.S. government's official web portal to all federal, state and local government web resources and services.